[[{"header":{"parameterUnit":"m.s-1","parameterCategory":1,"la1":30.2991,"la2":30.254,"lo1":-89.0895,"lo2":-89.0444,"dy":0.0017,"dx":0.0017,"nx":28,"ny":28,"refTime":"2025-03-30T21:00:00:Z","depth":0,"parameterNumber":2,"parameterNumberName":"U-component_of_WINDS"},"data":[0,0,0,0,0,0,0,0,0,0,0,0,0,0,0,0,0,0,0,0,0,0,0,0,0,0,0,0,0,0,0,0,0,0,0,0,0,0,0,0,0,0,0,0,0,0,0,0,0,0,0,0,0,0,0,0,0,0,0.0525,0.0525,0,0.0511,0.0511,0.0511,0.0489,0.0488,0.0488,0.0488,0.0474,0.0474,0.0474,0,0,0,0,0,0,0,0,0,0,0,0,0,0.0533,0.0533,0.0525,0.0525,0.0525,0.0511,0.0511,0.0511,0.0489,0.0488,0.0488,0.0487,0.0474,0.0474,0.0474,0,0,0,0,0,0,0,0,0,0,0,0,0,0.0525,0.0533,0.0525,0.0512,0.0511,0.0511,0.0511,0.0511,0.0489,0.0488,0.0488,0.0487,0.0474,0.0474,0.0474,0.0487,0,0,0.0474,0.0474,0,0,0,0,0,0,0,0,0.0526,0.0525,0.0514,0.0513,0.0511,0.0501,0.0509,0.0503,0.0489,0.0497,0.0488,0.0487,0.0484,0.0483,0.0482,0.0486,0.0485,0.0474,0.0474,0.0474,0.0474,0,0,0,0,0,0,0,0.0526,0.0525,0.0519,0.0514,0.0512,0.0507,0.0505,0.0508,0.0494,0.0497,0.0495,0.0494,0.0483,0.0482,0.0481,0.0485,0.0474,0.0474,0.0474,0.0474,0.05,0.05,0,0,0,0,0,0,0.0529,0.0526,0.052,0.0519,0.0517,0.0507,0.0506,0.0505,0.0494,0.0492,0.0494,0.0493,0.0482,0.0481,0.0481,0.0495,0.0474,0.0474,0.0474,0.0499,0.05,0.05,0,0,0,0,0,0,0.0529,0.0528,0.052,0.0522,0.0521,0.0508,0.0508,0.0505,0.0504,0.0492,0.049,0.0495,0.0481,0.0481,0.0485,0.0494,0.0474,0.0474,0.0498,0.0499,0.05,0.0523,0,0,0,0,0,0,0.0529,0.0528,0.0533,0.0522,0.0521,0.0525,0.0508,0.0505,0.0504,0.0502,0.0493,0.0491,0.0481,0.0485,0.0485,0.0494,0.0474,0.0497,0.0499,0.05,0.0522,0.0525,0.0528,0,0,0,0,0,0.053,0.054,0.0533,0.0532,0.0526,0.0526,0.0525,0.0513,0.0505,0.0509,0.0502,0.0491,0.0493,0.0486,0.0486,0.0495,0.0497,0.0498,0.05,0.052,0.0524,0.0528,0,0,0,0,0,0,0.0552,0.0538,0.0531,0.0538,0.0533,0.0522,0.0527,0.0518,0.0516,0.0514,0.05,0.0498,0.0505,0.05,0.0492,0.0506,0.0493,0.0495,0.0509,0.0513,0.0516,0.0517,0.0475,0,0,0,0,0,0.0557,0.0558,0.0546,0.0554,0.0552,0.054,0.054,0.0531,0.0526,0.0524,0.0517,0.0512,0.0512,0.0512,0.0511,0.0521,0.0519,0.0527,0.053,0.0532,0.0534,0.054,0.0543,0.0505,0.0505,0.0505,0,0,0.0569,0.0562,0.0563,0.0558,0.0554,0.0555,0.0539,0.0541,0.0542,0.0524,0.0528,0.0523,0.0517,0.0525,0.0528,0.0521,0.0544,0.0534,0.0536,0.0536,0.0541,0.0545,0.0548,0.0506,0.0506,0.0506,0,0,0.0591,0.0586,0.0592,0.0588,0.0581,0.0573,0.0575,0.0565,0.0561,0.0565,0.0552,0.0553,0.0553,0.0549,0.0547,0.0569,0.0559,0.0569,0.0585,0.0591,0.0594,0.0596,0.0605,0.0608,0.0571,0.0571,0.0571,0,0.0607,0.0609,0.0596,0.0599,0.0598,0.0582,0.0588,0.0585,0.0578,0.0578,0.057,0.057,0.0564,0.0571,0.0577,0.0575,0.0577,0.057,0.0594,0.0597,0.0599,0.0607,0.061,0.0572,0.0572,0.0572,0.0572,0,0.0629,0.063,0.0636,0.063,0.0629,0.0634,0.0622,0.0623,0.0615,0.0608,0.0612,0.0606,0.0603,0.0604,0.0596,0.061,0.0606,0.0597,0.0584,0.0604,0.0612,0.0615,0.0574,0.0573,0.0573,0.0573,0,0,0.0665,0.0652,0.0654,0.0652,0.0644,0.0645,0.0649,0.0647,0.0648,0.0644,0.0648,0.0648,0.0639,0.0637,0.0628,0.0633,0.0652,0.0623,0.0623,0.063,0.0669,0.0676,0.068,0.0645,0.0646,0.0646,0.0669,0,0.0686,0.0692,0.0681,0.0691,0.0692,0.0677,0.0681,0.0677,0.0671,0.0671,0.0664,0.0665,0.0653,0.0652,0.0656,0.0649,0.066,0.0647,0.065,0.065,0.0652,0.0684,0.0692,0.0714,0.0672,0.0672,0.0673,0,0.0711,0.0709,0.0719,0.0711,0.0711,0.0714,0.0712,0.0713,0.0708,0.0703,0.0701,0.0691,0.0695,0.0682,0.0688,0.0679,0.0679,0.0676,0.0677,0.0677,0.0663,0.0686,0.072,0.0724,0.0677,0.0677,0.0676,0,0.0738,0.0737,0.0743,0.0741,0.0731,0.0734,0.0731,0.0725,0.0724,0.0722,0.0722,0.072,0.072,0.0719,0.0709,0.07,0.0716,0.0702,0.0713,0.0713,0.0718,0.0718,0.0754,0.0717,0.0716,0.0716,0.0716,0,0.0763,0.077,0.0755,0.0758,0.0766,0.0753,0.0761,0.0755,0.075,0.0753,0.074,0.0743,0.0729,0.073,0.0722,0.0729,0.0729,0.0725,0.0723,0.0727,0.0728,0.0727,0.0726,0.0717,0.0717,0.0717,0.0717,0,0.0794,0.0784,0.0789,0.078,0.0778,0.0784,0.0776,0.0779,0.0772,0.0776,0.0776,0.0765,0.0766,0.0756,0.0755,0.075,0.076,0.0755,0.0762,0.0761,0.0773,0.0772,0.081,0.0815,0.0775,0.0775,0.0775,0,0.0811,0.0816,0.0807,0.0808,0.0805,0.0806,0.0806,0.0794,0.0794,0.0789,0.0793,0.0793,0.0793,0.0796,0.0788,0.0787,0.0783,0.0796,0.0782,0.0786,0.0784,0.0784,0.0785,0.0799,0.08,0.08,0.08,0,0.0842,0.0837,0.0837,0.0836,0.0836,0.0834,0.0832,0.0833,0.082,0.0821,0.0823,0.0822,0.0822,0.0822,0.082,0.0817,0.0807,0.0805,0.0807,0.0812,0.0816,0.0814,0.0771,0.0804,0.0804,0.0803,0.0803,0.0803,0.0867,0.0871,0.0866,0.0867,0.0864,0.0862,0.0865,0.0858,0.0859,0.0857,0.085,0.0853,0.0848,0.0845,0.0842,0.0844,0.0838,0.0842,0.0843,0.0844,0.0846,0.0815,0.0844,0.0844,0.0844,0.0844,0.0844,0,0.0899,0.0895,0.0896,0.0893,0.0893,0.0884,0.0881,0.0882,0.0885,0.0881,0.0881,0.0883,0.0884,0.0876,0.0876,0.0879,0.0875,0.088,0.088,0.0879,0.0852,0.085,0.0883,0.0883,0.0883,0.0883,0.0883,0.0883,0.0915,0.0922,0.0916,0.0922,0.0917,0.092,0.0919,0.0918,0.0915,0.0918,0.0918,0.0913,0.0908,0.0908,0.0908,0.0906,0.0907,0.0914,0.091,0.0885,0.0881,0.0877,0.0876,0.0914,0.0914,0.0937,0.0938,0.0938]},{"header":{"parameterUnit":"m.s-1","parameterCategory":1,"la1":30.2991,"la2":30.254,"lo1":-89.0895,"lo2":-89.0444,"dy":0.0017,"dx":0.0017,"nx":28,"ny":28,"refTime":"2025-03-30T21:00:00:Z","depth":0,"parameterNumber":3,"parameterNumberName":"V-component_of_WINDS"},"data":[0,0,0,0,0,0,0,0,0,0,0,0,0,0,0,0,0,0,0,0,0,0,0,0,0,0,0,0,0,0,0,0,0,0,0,0,0,0,0,0,0,0,0,0,0,0,0,0,0,0,0,0,0,0,0,0,0,0,4.5998,4.5999,0,4.6144,4.6146,4.6148,4.6162,4.6161,4.6159,4.6158,4.6309,4.6314,4.6319,0,0,0,0,0,0,0,0,0,0,0,0,0,4.5732,4.5736,4.5998,4.5999,4.6001,4.6144,4.6146,4.6148,4.6163,4.6161,4.6159,4.6157,4.6307,4.6313,4.632,0,0,0,0,0,0,0,0,0,0,0,0,0,4.586,4.5738,4.5997,4.6026,4.603,4.6144,4.6146,4.6149,4.6163,4.6161,4.6159,4.6156,4.6305,4.6313,4.6321,4.6417,0,0,4.6346,4.6349,0,0,0,0,0,0,0,0,4.5852,4.5869,4.602,4.6024,4.6029,4.6133,4.6108,4.6239,4.6164,4.6112,4.6158,4.6155,4.6252,4.6264,4.6297,4.6424,4.643,4.6346,4.6351,4.6355,4.6357,0,0,0,0,0,0,0,4.5843,4.5863,4.6056,4.6022,4.6027,4.6032,4.6047,4.6133,4.6193,4.6117,4.6118,4.6135,4.6254,4.6289,4.6301,4.6432,4.6346,4.6353,4.6358,4.6361,4.6648,4.6651,0,0,0,0,0,0,4.5829,4.5856,4.6051,4.606,4.5933,4.6038,4.6056,4.6102,4.6192,4.6204,4.6137,4.6135,4.6276,4.6291,4.6306,4.6427,4.6355,4.6362,4.6367,4.6646,4.6649,4.6652,0,0,0,0,0,0,4.5823,4.5846,4.6045,4.5958,4.5984,4.6045,4.6097,4.6106,4.6141,4.6208,4.6219,4.6162,4.6275,4.6294,4.639,4.6432,4.6366,4.6373,4.6642,4.6647,4.6651,4.6667,0,0,0,0,0,0,4.5816,4.5844,4.5881,4.5959,4.5989,4.6126,4.6099,4.611,4.6155,4.6154,4.6234,4.6245,4.6275,4.6377,4.6398,4.6442,4.638,4.6639,4.6644,4.6649,4.6663,4.6672,4.6679,0,0,0,0,0,4.5806,4.5879,4.5882,4.5906,4.6035,4.6128,4.6145,4.6178,4.6158,4.6196,4.6239,4.6242,4.6424,4.6387,4.641,4.6457,4.6636,4.6643,4.6649,4.666,4.667,4.6678,0,0,0,0,0,0,4.5803,4.589,4.5895,4.5995,4.6054,4.6131,4.6179,4.6187,4.6254,4.625,4.6288,4.6306,4.6401,4.6438,4.6396,4.6557,4.6528,4.6539,4.6529,4.6539,4.6546,4.6536,4.6386,0,0,0,0,0,4.5815,4.5882,4.5954,4.6036,4.6065,4.6117,4.6159,4.6179,4.6242,4.6267,4.6318,4.6379,4.645,4.6496,4.6565,4.6668,4.6688,4.6713,4.672,4.6726,4.6736,4.6796,4.6809,4.6672,4.6672,4.6672,0,0,4.5838,4.5894,4.5934,4.6037,4.6085,4.6156,4.6138,4.6213,4.6266,4.6279,4.6373,4.6412,4.6483,4.6583,4.663,4.6618,4.6778,4.6734,4.6738,4.6745,4.6804,4.6817,4.6828,4.6676,4.6676,4.6675,0,0,4.5918,4.5966,4.6041,4.609,4.6164,4.6198,4.6216,4.6292,4.6319,4.6413,4.6425,4.6489,4.661,4.6661,4.6703,4.6804,4.6811,4.6825,4.6866,4.6925,4.6935,4.6945,4.6984,4.6997,4.6835,4.6835,4.6835,0,4.5938,4.6045,4.6078,4.6153,4.6199,4.6214,4.6291,4.6337,4.643,4.6462,4.6446,4.6601,4.6649,4.6763,4.6788,4.6821,4.6844,4.6817,4.6931,4.6941,4.6951,4.6989,4.7003,4.6836,4.6836,4.6836,4.6836,0,4.6067,4.6141,4.6193,4.6283,4.6334,4.641,4.6456,4.6504,4.652,4.6556,4.6654,4.6713,4.6796,4.6824,4.6839,4.6941,4.6932,4.6923,4.6896,4.6965,4.7001,4.7016,4.6838,4.6838,4.6837,4.6837,0,0,4.615,4.6258,4.6277,4.6319,4.6403,4.6461,4.6538,4.6619,4.6661,4.6724,4.6792,4.6894,4.6888,4.6936,4.6958,4.7009,4.7089,4.6995,4.6997,4.7012,4.7208,4.7216,4.7231,4.7093,4.7095,4.7098,4.7203,0,4.6241,4.6379,4.6412,4.6531,4.6601,4.6617,4.6685,4.6744,4.678,4.6845,4.6885,4.6959,4.6943,4.6972,4.7023,4.7068,4.7129,4.7061,4.7158,4.7161,4.7142,4.725,4.7258,4.7354,4.7217,4.7219,4.7221,0,4.6366,4.6434,4.6559,4.6636,4.6667,4.6727,4.6806,4.6867,4.6935,4.6958,4.7012,4.703,4.7112,4.7079,4.7195,4.7148,4.7189,4.7217,4.7222,4.7234,4.7196,4.7268,4.7385,4.7401,4.7243,4.7241,4.724,0,4.6417,4.6539,4.6631,4.6666,4.6757,4.68,4.684,4.6906,4.6953,4.7022,4.7054,4.713,4.7173,4.7233,4.7271,4.7243,4.7385,4.7354,4.7408,4.7407,4.7439,4.7437,4.7567,4.7461,4.7461,4.7461,4.746,0,4.6517,4.6594,4.6656,4.6713,4.68,4.6838,4.6923,4.6964,4.7022,4.7088,4.7106,4.7168,4.7214,4.7282,4.7312,4.7405,4.7423,4.7446,4.7453,4.7446,4.7443,4.7475,4.7471,4.7464,4.7464,4.7463,4.7462,0,4.659,4.6634,4.6736,4.6814,4.6835,4.6897,4.6964,4.7021,4.7058,4.7141,4.7163,4.7221,4.7303,4.7347,4.7448,4.7469,4.7574,4.7576,4.7551,4.7555,4.7607,4.7603,4.7765,4.779,4.7664,4.7665,4.7666,0,4.6652,4.6712,4.6797,4.6843,4.6884,4.6956,4.7006,4.7045,4.7096,4.7179,4.7226,4.7309,4.7377,4.7507,4.7559,4.7638,4.7644,4.7696,4.7656,4.7648,4.7649,4.7646,4.7653,4.7703,4.7704,4.7705,4.7706,0,4.6758,4.6778,4.6848,4.6926,4.6985,4.7048,4.7111,4.7148,4.7198,4.7254,4.7338,4.7391,4.7496,4.7579,4.7662,4.7704,4.7715,4.7718,4.7735,4.7729,4.7713,4.7726,4.7573,4.7714,4.7713,4.7713,4.7712,4.7712,4.683,4.6885,4.6954,4.7033,4.7084,4.7143,4.7201,4.7246,4.7317,4.7406,4.7424,4.7514,4.7583,4.7696,4.774,4.7812,4.7802,4.7825,4.7832,4.7838,4.7842,4.77,4.7826,4.7826,4.7826,4.7826,4.7826,0,4.694,4.6985,4.7057,4.7145,4.7208,4.7211,4.7282,4.7334,4.7412,4.7476,4.7543,4.7641,4.7722,4.7781,4.7864,4.791,4.7917,4.7931,4.7929,4.7939,4.7845,4.7823,4.7924,4.7924,4.7924,4.7924,4.7924,4.7924,4.7004,4.7099,4.7127,4.7248,4.7294,4.7382,4.7422,4.7478,4.7529,4.7637,4.7705,4.7743,4.7805,4.7893,4.7968,4.7983,4.8014,4.8028,4.8044,4.7956,4.7945,4.7935,4.7915,4.8034,4.8034,4.8133,4.8134,4.8135]}]]